Simultaneous Nadir Overpasses (SNOs) Predictions

Prediction of SNOs between LANDSAT-8 and NOAA-19 Satellite Orbit:

Table of predicted SNOs for the next 14.0 days since TLE Epoch: 11/10/2014
Index Date (LANDSAT-8) Time (LANDSAT-8) Lat,Lon (LANDSAT-8) SZA (LANDSAT-8 ) Date (NOAA-19) Time (NOAA-19) Lat,Lon (NOAA-19) SZA (NOAA-19 ) Distance(km) Time Diff (sec)
1 11/12/2014 11:17:29 72.39, 10.63 90.06 11/12/2014 11:17:10 72.40, 10.72 90.08 3.77 19
2 11/12/2014 12:06:58 -72.32, 178.14 90.00 11/12/2014 12:08:10 -72.31, 178.15 90.00 0.82 72
3 11/14/2014 16:01:45 72.44, -60.35 90.70 11/14/2014 16:00:51 72.45, -60.26 90.71 3.14 54
4 11/14/2014 16:51:14 -72.38, 107.17 89.36 11/14/2014 16:51:52 -72.38, 107.12 89.35 1.76 38
5 11/16/2014 20:45:51 73.00,-130.34 91.84 11/16/2014 20:44:43 73.06,-132.46 91.85 69.13 68
6 11/16/2014 21:35:30 -72.41, 36.16 88.78 11/16/2014 21:35:33 -72.41, 36.17 88.77 0.39 3
7 11/19/2014 02:19:45 -72.48, -34.79 88.18 11/19/2014 02:19:14 -72.45, -34.80 88.21 2.81 31
8 11/19/2014 03:09:12 72.38, 132.68 91.73 11/19/2014 03:10:12 72.36, 132.63 91.72 2.29 60
9 11/21/2014 07:04:00 -72.52,-105.77 87.64 11/21/2014 07:02:55 -72.50,-105.80 87.66 2.19 65
10 11/21/2014 07:53:27 72.42, 61.69 92.27 11/21/2014 07:53:52 72.39, 61.68 92.25 3.14 25
11 11/23/2014 12:37:42 72.45, -9.33 92.76 11/23/2014 12:37:32 72.43, -9.28 92.75 1.98 10




NCC Satellite Simultaneous Nadir Overpasses (SNOs) Prediction Service
